Port Huron, MI

5:39 AM EDT on May 29, 2017 (GMT -0400)
Saint Clair County International

Weather History for KPHN - March, 2013

Change the Weather History Date:

Monday, March 18, 2013

  Actual Average (KMTC) Record (KMTC)
Temperature  
Mean Temperature 28 °F -  
Max Temperature 35 °F 40 °F 74 °F (2012)
Min Temperature 21 °F 26 °F 7 °F (1967)
Degree Days  
Heating Degree Days 37    
Moisture  
Dew Point 25 °F    
Average Humidity 86    
Maximum Humidity 100    
Minimum Humidity 74    
Precipitation  
Precipitation 0.00 in - - ()
Sea Level Pressure  
Sea Level Pressure 29.85 in    
Wind  
Wind Speed 11 mph (ESE)    
Max Wind Speed 21 mph    
Max Gust Speed 29 mph    
Visibility 8 miles    
Events Rain , Snow    
Averages and records for this station are not official NWS values.
T = Trace of Precipitation, MM = Missing Value Source: NWS Daily Summary

Daily Weather History Graph

Daily Weather History Graph

Search for Another Location

Airport or City:

Trip Planner

Search our weather history database for the weather conditions in past years. The results will help you decide how hot, cold, wet, or windy it might be!

Date:

Astronomy

Mar. 18, 2013 Rise Set
Actual Time 7:36 AM EDT 7:40 PM EDT
Civil Twilight 7:08 AM EDT 8:08 PM EDT
Nautical Twilight 6:35 AM EDT 8:41 PM EDT
Astronomical Twilight 6:01 AM EDT 9:15 PM EDT
Moon 11:26 AM EDT (3/18) 1:46 AM EDT (3/18)
Length of Visible Light 13h 00m
Length of Day
12h 03m
Waxing Crescent, 40% of the Moon is Illuminated
Mar 18
Waxing Crescent
Mar 19
First Quarter
Mar 27
Full
Apr 3
Last Quarter
Apr 10
New

Hourly Weather History & Observations

Time (EDT) Temp. Windchill Dew Point Humidity Pressure Visibility Wind Dir Wind Speed Gust Speed Precip Events Conditions
12:16 AM 21.2 °F 11.7 °F 14.0 °F 74% 30.22 in 10.0 mi East 8.1 mph - N/A   Clear
12:36 AM 21.2 °F 10.9 °F 14.0 °F 74% 30.21 in 10.0 mi East 9.2 mph - N/A   Clear
12:57 AM 21.2 °F 11.7 °F 14.0 °F 74% 30.21 in 10.0 mi East 8.1 mph - N/A   Clear
1:16 AM 21.2 °F 11.7 °F 14.0 °F 74% 30.20 in 10.0 mi East 8.1 mph - N/A   Clear
1:36 AM 21.2 °F 11.7 °F 14.0 °F 74% 30.19 in 10.0 mi East 8.1 mph - N/A   Clear
1:56 AM 21.2 °F 12.6 °F 14.0 °F 74% 30.18 in 10.0 mi East 6.9 mph - N/A   Clear
2:16 AM 21.2 °F 12.6 °F 14.0 °F 74% 30.17 in 10.0 mi East 6.9 mph - N/A   Clear
2:37 AM 21.2 °F 14.9 °F 14.0 °F 74% 30.17 in 10.0 mi East 4.6 mph - N/A   Clear
2:56 AM 21.2 °F 14.9 °F 15.8 °F 80% 30.17 in 10.0 mi East 4.6 mph - N/A   Clear
3:16 AM 21.2 °F 13.6 °F 17.6 °F 86% 30.16 in 10.0 mi East 5.8 mph - N/A   Clear
3:36 AM 23.0 °F 13.9 °F 17.6 °F 80% 30.15 in 10.0 mi East 8.1 mph - N/A   Clear
3:56 AM 23.0 °F 12.4 °F 19.4 °F 86% 30.14 in 10.0 mi East 10.4 mph - N/A   Clear
4:17 AM 24.8 °F 13.4 °F 19.4 °F 80% 30.13 in 10.0 mi East 12.7 mph - N/A   Clear
4:36 AM 24.8 °F 12.9 °F 19.4 °F 80% 30.10 in 10.0 mi East 13.8 mph 20.7 mph N/A   Clear
4:56 AM 24.8 °F 14.0 °F 19.4 °F 80% 30.10 in 10.0 mi East 11.5 mph - N/A   Clear
5:17 AM 24.8 °F 12.4 °F 19.4 °F 80% 30.10 in 10.0 mi East 15.0 mph 21.9 mph N/A   Clear
5:36 AM 24.8 °F 11.1 °F 19.4 °F 80% 30.10 in 10.0 mi East 18.4 mph 23.0 mph N/A   Clear
5:57 AM 24.8 °F 13.4 °F 17.6 °F 74% 30.08 in 10.0 mi East 12.7 mph 18.4 mph N/A   Clear
6:16 AM 24.8 °F 13.4 °F 17.6 °F 74% 30.07 in 10.0 mi East 12.7 mph 19.6 mph N/A   Clear
6:36 AM 24.8 °F 12.9 °F 17.6 °F 74% 30.06 in 10.0 mi East 13.8 mph 18.4 mph N/A   Clear
6:57 AM 24.8 °F 13.4 °F 17.6 °F 74% 30.05 in 10.0 mi East 12.7 mph - N/A   Clear
7:16 AM 24.8 °F 14.0 °F 17.6 °F 74% 30.03 in 10.0 mi East 11.5 mph 18.4 mph N/A   Clear
7:36 AM 24.8 °F 13.4 °F 17.6 °F 74% 30.01 in 10.0 mi East 12.7 mph - N/A   Clear
7:57 AM 24.8 °F 14.0 °F 17.6 °F 74% 30.02 in 10.0 mi East 11.5 mph 18.4 mph N/A   Clear
8:16 AM 24.8 °F 14.6 °F 19.4 °F 80% 30.01 in 10.0 mi ENE 10.4 mph - N/A   Clear
8:36 AM 26.6 °F 15.7 °F 19.4 °F 74% 30.00 in 10.0 mi East 12.7 mph - N/A   Clear
8:56 AM 26.6 °F 14.3 °F 19.4 °F 74% 29.98 in 10.0 mi East 16.1 mph 21.9 mph N/A   Clear
9:16 AM 26.6 °F 15.7 °F 21.2 °F 80% 29.98 in 10.0 mi East 12.7 mph 19.6 mph N/A   Clear
9:37 AM 28.4 °F 17.5 °F 21.2 °F 74% 29.96 in 10.0 mi East 13.8 mph 18.4 mph N/A   Scattered Clouds
9:56 AM 28.4 °F 17.5 °F 21.2 °F 74% 29.95 in 10.0 mi East 13.8 mph 19.6 mph N/A   Mostly Cloudy
10:17 AM 28.4 °F 16.6 °F 23.0 °F 80% 29.93 in 10.0 mi East 16.1 mph 20.7 mph N/A   Overcast
10:36 AM 30.2 °F 18.9 °F 23.0 °F 75% 29.92 in 10.0 mi East 16.1 mph 25.3 mph N/A   Overcast
10:56 AM 30.2 °F 18.5 °F 23.0 °F 75% 29.90 in 10.0 mi East 17.3 mph 24.2 mph N/A   Overcast
11:17 AM 30.2 °F 17.8 °F 23.0 °F 75% 29.89 in 10.0 mi East 19.6 mph 25.3 mph N/A   Overcast
11:36 AM 30.2 °F 18.1 °F 24.8 °F 80% 29.87 in 10.0 mi East 18.4 mph - N/A   Overcast
11:57 AM 30.2 °F 19.3 °F 24.8 °F 80% 29.86 in 10.0 mi East 15.0 mph 26.5 mph N/A Snow Light Snow
12:16 PM 32.0 °F 20.1 °F 24.8 °F 75% 29.84 in 10.0 mi East 19.6 mph 25.3 mph N/A   Overcast
12:37 PM 32.0 °F 20.8 °F 24.8 °F 75% 29.83 in 10.0 mi East 17.3 mph 26.5 mph N/A   Overcast
12:56 PM 32.0 °F 20.8 °F 24.8 °F 75% 29.82 in 7.0 mi ESE 17.3 mph 25.3 mph N/A Snow Light Snow
1:16 PM 32.0 °F 21.2 °F 26.6 °F 80% 29.81 in 3.0 mi ESE 16.1 mph 21.9 mph N/A Snow Light Snow
1:37 PM 32.0 °F 21.2 °F 28.4 °F 87% 29.82 in 5.0 mi ESE 16.1 mph 24.2 mph N/A Snow Light Snow
1:56 PM 32.0 °F 21.6 °F 28.4 °F 87% 29.79 in 10.0 mi ESE 15.0 mph 21.9 mph N/A   Overcast
2:17 PM 32.0 °F 20.8 °F 28.4 °F 87% 29.77 in 3.0 mi ESE 17.3 mph 28.8 mph N/A   Overcast
2:36 PM 32.0 °F 21.2 °F 30.2 °F 93% 29.76 in 2.0 mi ESE 16.1 mph 25.3 mph N/A   Overcast
2:56 PM 32.0 °F 19.8 °F 30.2 °F 93% 29.74 in 7.0 mi ESE 20.7 mph 26.5 mph N/A   Overcast
3:17 PM 32.0 °F 23.0 °F 30.2 °F 93% 29.71 in 10.0 mi ESE 11.5 mph 28.8 mph N/A   Overcast
3:36 PM 32.0 °F 21.2 °F 30.2 °F 93% 29.70 in 7.0 mi ESE 16.1 mph 19.6 mph N/A   Overcast
3:56 PM 32.0 °F 22.5 °F 30.2 °F 93% 29.68 in 5.0 mi ESE 12.7 mph 25.3 mph N/A   Overcast
4:17 PM 32.0 °F 22.5 °F 30.2 °F 93% 29.66 in 2.0 mi ESE 12.7 mph 25.3 mph N/A   Overcast
4:36 PM 32.0 °F 21.2 °F 32.0 °F 100% 29.66 in 1.8 mi ESE 16.1 mph 24.2 mph N/A   Overcast
4:57 PM 32.0 °F 22.1 °F 32.0 °F 100% 29.64 in 3.0 mi ESE 13.8 mph 24.2 mph N/A   Overcast
5:16 PM 32.0 °F 21.2 °F 32.0 °F 100% 29.64 in 4.0 mi ESE 16.1 mph 23.0 mph N/A   Overcast
5:37 PM 32.0 °F 22.1 °F 32.0 °F 100% 29.62 in 1.8 mi ESE 13.8 mph 24.2 mph N/A Snow Light Snow
5:56 PM 32.0 °F 22.5 °F 32.0 °F 100% 29.60 in 1.5 mi SE 12.7 mph 23.0 mph N/A Snow Light Snow
6:16 PM 32.0 °F 23.6 °F 32.0 °F 100% 29.59 in 2.0 mi ESE 10.4 mph 20.7 mph N/A   Overcast
6:36 PM 32.0 °F 22.5 °F 32.0 °F 100% 29.58 in 2.0 mi ESE 12.7 mph 18.4 mph N/A Snow Light Snow
6:56 PM 32.0 °F 23.6 °F 32.0 °F 100% 29.57 in 2.5 mi SE 10.4 mph 19.6 mph N/A   Overcast
7:17 PM 32.0 °F 23.0 °F 32.0 °F 100% 29.57 in 2.5 mi SE 11.5 mph 16.1 mph N/A Snow Light Snow
7:36 PM 32.0 °F 24.2 °F 32.0 °F 100% 29.57 in 2.0 mi SE 9.2 mph - N/A   Overcast
7:56 PM 32.0 °F 24.2 °F 32.0 °F 100% 29.55 in 2.5 mi SE 9.2 mph 16.1 mph N/A   Overcast
8:17 PM 32.0 °F 24.2 °F 32.0 °F 100% 29.55 in 4.0 mi SE 9.2 mph - N/A   Overcast
8:36 PM 33.8 °F - 33.8 °F 100% 29.55 in 5.0 mi North - - N/A   Overcast
8:57 PM 33.8 °F 27.7 °F 33.8 °F 100% 29.55 in 4.0 mi SSE 6.9 mph - N/A   Overcast
9:16 PM 33.8 °F 26.4 °F 33.8 °F 100% 29.55 in 5.0 mi SSE 9.2 mph - N/A   Light Drizzle
9:37 PM 33.8 °F 27.7 °F 33.8 °F 100% 29.55 in 1.8 mi South 6.9 mph - N/A Rain Light Rain
9:56 PM 33.8 °F 27.7 °F 33.8 °F 100% 29.55 in 5.0 mi South 6.9 mph - N/A Rain Light Rain
10:16 PM 33.8 °F 28.6 °F 33.8 °F 100% 29.56 in 5.0 mi SSW 5.8 mph - N/A   Overcast
10:37 PM 35.6 °F 29.2 °F 35.6 °F 100% 29.56 in 7.0 mi SW 8.1 mph - N/A   Overcast
10:56 PM 35.6 °F 27.1 °F 35.6 °F 100% 29.57 in 10.0 mi SW 12.7 mph 17.3 mph N/A   Overcast
11:16 PM 33.8 °F 25.8 °F 33.8 °F 100% 29.57 in 10.0 mi WSW 10.4 mph 18.4 mph N/A   Overcast
11:37 PM 33.8 °F 27.0 °F 33.8 °F 100% 29.57 in 10.0 mi WSW 8.1 mph - N/A   Overcast
11:56 PM 33.8 °F 28.6 °F 33.8 °F 100% 29.58 in 10.0 mi SW 5.8 mph - N/A   Overcast